Weather History for Florence, SC

Change the Weather History Date:

Saturday, July 27, 2013

  Actual Average Record
Temperature  
Mean Temperature 80 °F 81 °F  
Max Temperature 90 °F 91 °F 101 °F (2005)
Min Temperature 69 °F 72 °F 65 °F (1962)
Degree Days  
Heating Degree Days 0 0  
Month to date heating degree days 0 0  
Since 1 June heating degree days 0 1  
Since 1 July heating degree days 0 0  
Cooling Degree Days 15 16  
Month to date cooling degree days 432 432  
Year to date cooling degree days 1123 1136  
Since 1 June cooling degree days 856 829  
Growing Degree Days 30 (Base 50)    
Moisture  
Dew Point 70 °F    
Average Humidity 78    
Maximum Humidity 100    
Minimum Humidity 55    
Precipitation  
Precipitation 4.10 in 0.17 in 4.10 in (2013)
Month to date precipitation 13.17 4.53  
Year to date precipitation 40.28 24.51  
Sea Level Pressure  
Sea Level Pressure 29.99 in    
Wind  
Wind Speed 5 mph (ESE)    
Max Wind Speed 36 mph    
Max Gust Speed 46 mph    
Visibility 5 miles    
Events Fog , Rain , Thunderstorm    
T = Trace of Precipitation, MM = Missing Value Source: NWS Daily Summary

Daily Weather History Graph

Daily Weather History Graph

Search for Another Location

Airport:

Trip Planner

Search our weather history database for the weather conditions in past years. The results will help you decide how hot, cold, wet, or windy it might be!

Date:

Astronomy

Jul. 27, 2013 Rise Set
Actual Time 6:26 AM EDT 8:23 PM EDT
Civil Twilight 5:58 AM EDT 8:51 PM EDT
Nautical Twilight 5:24 AM EDT 9:25 PM EDT
Astronomical Twilight 4:48 AM EDT 10:01 PM EDT
Moon 11:29 PM EDT (7/27) 11:47 AM EDT (7/27)
Length of Visible Light 14h 52m
Length of Day
13h 57m
Waning Gibbous, 71% of the Moon is Illuminated
Jul 27
Waning Gibbous
Jul 29
Last Quarter
Aug 6
New
Aug 14
First Quarter
Aug 20
Full

Hourly Weather History & Observations

Time (EDT) Temp. Heat Index Dew Point Humidity Pressure Visibility Wind Dir Wind Speed Gust Speed Precip Events Conditions
12:53 AM 75.0 °F - 72.0 °F 90% 30.05 in 9.0 mi SE 3.5 mph - N/A   Clear
1:53 AM 73.9 °F - 71.1 °F 91% 30.04 in 7.0 mi Calm Calm - N/A   Clear
2:53 AM 73.0 °F - 70.0 °F 90% 30.02 in 5.0 mi Calm Calm - N/A   Clear
3:53 AM 71.1 °F - 70.0 °F 96% 30.01 in 6.0 mi Calm Calm - N/A   Clear
4:53 AM 71.1 °F - 69.1 °F 93% 30.01 in 5.0 mi Calm Calm - N/A   Clear
5:11 AM 71.6 °F - 69.8 °F 94% 30.02 in 1.8 mi Calm Calm - N/A   Clear
5:24 AM 69.8 °F - 66.2 °F 88% 30.02 in 1.0 mi Calm Calm - N/A   Mist
5:32 AM 69.8 °F - 68.0 °F 94% 30.02 in 0.5 mi Calm Calm - N/A Fog Fog
5:44 AM 69.8 °F - 68.0 °F 94% 30.02 in 2.5 mi Calm Calm - N/A   Overcast
5:51 AM 69.8 °F - 68.0 °F 94% 30.03 in 1.8 mi Calm Calm - N/A   Overcast
5:52 AM 70.0 °F - 68.0 °F 93% 30.02 in 1.8 mi Calm Calm - N/A   Overcast
6:00 AM 69.8 °F - 68.0 °F 94% 30.03 in 0.2 mi Calm Calm - N/A Fog Fog
6:10 AM 69.8 °F - 69.8 °F 100% 30.03 in 0.2 mi Calm Calm - N/A Fog Fog
6:53 AM 70.0 °F - 69.1 °F 97% 30.01 in 0.2 mi ESE 4.6 mph - N/A Fog Fog
7:16 AM 71.6 °F - 69.8 °F 94% 30.02 in 0.5 mi Calm Calm - N/A Fog Fog
7:34 AM 71.6 °F - 69.8 °F 94% 30.03 in 1.0 mi ESE 3.5 mph - N/A   Overcast
7:53 AM 72.0 °F - 70.0 °F 93% 30.02 in 1.0 mi ESE 4.6 mph - N/A   Overcast
8:17 AM 73.4 °F - 71.6 °F 94% 30.03 in 2.0 mi Calm Calm - N/A   Scattered Clouds
8:31 AM 73.4 °F - 71.6 °F 94% 30.03 in 4.0 mi ESE 4.6 mph - N/A   Scattered Clouds
8:53 AM 75.0 °F - 72.0 °F 90% 30.02 in 10.0 mi ESE 5.8 mph - N/A   Clear
9:53 AM 79.0 °F - 72.0 °F 79% 30.02 in 10.0 mi SSE 5.8 mph - N/A   Partly Cloudy
10:53 AM 82.0 °F 86.7 °F 72.0 °F 71% 30.01 in 10.0 mi SE 6.9 mph - N/A   Clear
11:53 AM 84.9 °F 91.4 °F 73.0 °F 67% 30.01 in 10.0 mi South 5.8 mph - N/A   Scattered Clouds
12:53 PM 86.0 °F 91.5 °F 71.1 °F 61% 29.98 in 10.0 mi South 6.9 mph - N/A   Scattered Clouds
1:53 PM 90.0 °F 96.9 °F 72.0 °F 55% 29.95 in 10.0 mi SE 10.4 mph - N/A   Scattered Clouds
2:53 PM 87.1 °F 92.0 °F 70.0 °F 57% 29.93 in 10.0 mi South 8.1 mph - N/A   Scattered Clouds
3:23 PM 78.8 °F - 71.6 °F 78% 29.93 in 1.8 mi South 29.9 mph 36.8 mph 0.09 in Rain , Thunderstorm Light Thunderstorms and Rain
3:31 PM 75.2 °F - 68.0 °F 78% 29.95 in 0.5 mi SSE 10.4 mph 36.8 mph 0.32 in Rain , Thunderstorm Light Thunderstorms and Rain
3:36 PM 77.0 °F - 69.8 °F 78% 29.95 in 4.0 mi SE 11.5 mph 29.9 mph 0.32 in Rain , Thunderstorm Light Thunderstorms and Rain
3:53 PM 78.1 °F - 73.0 °F 84% 29.94 in 10.0 mi SSW 4.6 mph - 0.32 in   Mostly Cloudy
4:53 PM 82.0 °F 87.4 °F 73.0 °F 74% 29.94 in 10.0 mi SE 4.6 mph - N/A   Mostly Cloudy
5:53 PM 82.9 °F 88.0 °F 72.0 °F 69% 29.94 in 10.0 mi Calm Calm - N/A   Partly Cloudy
6:53 PM 81.0 °F 86.7 °F 75.0 °F 82% 29.93 in 10.0 mi East 8.1 mph - N/A   Clear
7:23 PM 80.6 °F 86.2 °F 75.2 °F 84% 29.93 in 10.0 mi ENE 8.1 mph - N/A   Mostly Cloudy
7:48 PM 77.0 °F - 73.4 °F 89% 29.98 in 1.8 mi West 16.1 mph 21.9 mph 0.26 in Rain , Thunderstorm Heavy Thunderstorms and Rain
7:53 PM 73.0 °F - 71.1 °F 93% 29.97 in 0.5 mi West 18.4 mph 27.6 mph 0.84 in Fog , Rain , Thunderstorm Heavy Thunderstorms and Rain
7:56 PM 71.6 °F - 69.8 °F 94% 29.98 in 0.2 mi West 21.9 mph 27.6 mph 0.34 in Fog , Rain , Thunderstorm Heavy Thunderstorms and Rain
8:00 PM 71.6 °F - 69.8 °F 94% 29.95 in 0.2 mi WNW 25.3 mph 33.4 mph 0.73 in Fog , Rain , Thunderstorm Heavy Thunderstorms and Rain
8:11 PM 69.8 °F - 68.0 °F 94% 29.98 in 0.5 mi NNW 23.0 mph 46.0 mph 1.33 in Fog , Rain , Thunderstorm Heavy Thunderstorms and Rain
8:18 PM 69.8 °F - 68.0 °F 94% 29.98 in 1.0 mi NNW 11.5 mph - 1.60 in Rain , Thunderstorm Heavy Thunderstorms and Rain
8:33 PM 69.8 °F - 66.2 °F 88% 29.98 in 1.2 mi ENE 5.8 mph - 2.00 in Rain , Thunderstorm Heavy Thunderstorms and Rain
8:39 PM 69.8 °F - 66.2 °F 88% 29.97 in 4.0 mi East 10.4 mph - 2.00 in Rain , Thunderstorm Light Rain
8:48 PM 71.6 °F - 68.0 °F 88% 29.96 in 10.0 mi ENE 6.9 mph - 2.00 in Rain , Thunderstorm Light Rain
8:53 PM 72.0 °F - 69.1 °F 91% 29.95 in 10.0 mi NE 4.6 mph - 2.00 in Thunderstorm Overcast
9:02 PM 71.6 °F - 69.8 °F 94% 29.95 in 10.0 mi ENE 8.1 mph - 0.00 in Rain Light Rain
9:11 PM 71.6 °F - 69.8 °F 94% 29.95 in 10.0 mi Calm Calm - 0.00 in Rain , Thunderstorm Light Rain
9:46 PM 71.6 °F - 69.8 °F 94% 29.98 in 1.8 mi South 4.6 mph - 0.17 in Rain , Thunderstorm Heavy Thunderstorms and Rain
9:53 PM 71.1 °F - 69.1 °F 93% 29.97 in 1.2 mi Calm Calm - 0.26 in Rain , Thunderstorm Heavy Rain
10:00 PM 71.6 °F - 69.8 °F 94% 29.99 in 3.0 mi NNW 3.5 mph - 0.02 in Rain , Thunderstorm Light Rain
10:08 PM 71.6 °F - 69.8 °F 94% 29.99 in 3.0 mi North 5.8 mph - 0.09 in Rain , Thunderstorm Heavy Rain
10:23 PM 71.6 °F - 69.8 °F 94% 30.00 in 7.0 mi Calm Calm - 0.12 in Rain , Thunderstorm Light Rain
10:28 PM 71.6 °F - 69.8 °F 94% 30.01 in 8.0 mi Calm Calm - 0.13 in Rain , Thunderstorm Light Thunderstorms and Rain
10:39 PM 71.6 °F - 69.8 °F 94% 30.01 in 4.0 mi Calm Calm - 0.16 in Rain , Thunderstorm Thunderstorms and Rain
10:53 PM 72.0 °F - 70.0 °F 93% 29.99 in 4.0 mi East 4.6 mph - 0.21 in Rain , Thunderstorm Thunderstorms and Rain
11:02 PM 71.6 °F - 69.8 °F 94% 30.00 in 1.8 mi NE 3.5 mph - 0.14 in Rain , Thunderstorm Heavy Thunderstorms and Rain
11:21 PM 71.6 °F - 69.8 °F 94% 29.97 in 3.0 mi East 9.2 mph - 0.41 in Rain , Thunderstorm Heavy Rain
11:43 PM 71.6 °F - 69.8 °F 94% 29.97 in 7.0 mi East 9.2 mph - 0.46 in Rain Rain
11:53 PM 72.0 °F - 70.0 °F 93% 29.96 in 10.0 mi East 8.1 mph - 0.47 in Rain Light Rain